Theta_e
303 303 303 304 304 304 304 304 304 303 303 301 300 300 294 292 288 299 303 305 303 294 286 289 287 285 288 294 293 295 293 292 293 291 293 291 292 287 291 290 290 292 291 289 288 291 286 290 288 292 293 295 298 304 304 305 303 302 298 300 299 295 288 286 285 288 290 292 294 295 295 297 294 294 295 295 292 293 291 290 288 286 286 284 284 281 285
302 302 303 303 304 303 303 303 303 303 303 301 300 296 292 291 290 293 303 305 302 291 281 282 284 286 290 291 290 295 293 292 289 290 291 290 289 287 287 291 294 291 296 293 287 292 285 290 291 289 295 293 302 302 304 305 301 300 298 295 298 291 289 288 283 282 284 286 290 291 293 294 292 291 294 295 296 295 290 286 287 284 286 286 284 280 285
302 302 302 302 302 303 302 302 303 303 303 302 298 292 293 292 294 294 296 302 299 287 290 286 284 285 286 285 284 288 291 293 292 291 290 292 291 289 288 290 294 292 296 293 294 293 291 286 292 292 290 295 297 299 302 305 302 304 303 300 302 292 290 288 282 278 277 276 278 281 285 288 292 293 293 294 294 293 291 287 285 283 284 287 283 284 289
301 301 301 301 301 301 302 302 302 303 303 303 299 297 291 288 281 289 291 295 294 293 294 291 288 285 285 284 284 287 286 291 294 293 292 293 293 290 292 292 294 291 291 289 289 290 293 290 286 290 287 289 292 298 301 303 303 301 299 299 300 288 293 291 290 287 285 286 288 292 294 290 287 289 292 292 294 295 293 290 287 284 285 284 287 288 288
301 301 300 300 300 301 301 301 302 302 302 303 299 296 294 292 285 285 283 290 290 289 291 289 290 285 288 282 284 282 285 289 290 295 288 292 292 290 292 291 288 288 288 287 288 290 290 291 288 287 288 291 294 298 300 303 302 298 298 299 295 287 288 291 292 291 292 293 292 294 294 290 291 290 290 293 292 292 290 288 287 291 284 282 288 290 288
300 300 300 300 300 300 300 300 301 302 302 303 299 291 291 284 287 291 291 285 282 284 285 289 288 291 289 286 288 283 283 286 283 290 292 293 293 287 290 291 289 290 288 290 285 288 287 288 286 289 288 289 292 294 298 299 299 298 298 300 296 290 287 291 292 291 292 293 293 295 294 293 292 292 292 291 292 292 289 290 293 292 287 285 291 292 290
300 300 299 300 301 301 301 301 301 301 301 301 297 289 289 289 290 291 293 284 288 287 289 289 288 288 288 287 288 285 284 283 287 287 287 290 289 290 282 287 289 290 291 289 286 288 284 283 288 286 286 287 289 288 293 297 296 298 297 297 295 293 288 291 292 290 291 291 292 294 293 293 292 292 292 293 293 292 292 292 294 293 291 293 293 293 292
299 299 300 300 300 300 301 300 300 301 301 301 295 292 287 284 286 286 291 290 288 289 289 289 288 285 289 284 286 287 286 284 287 290 287 283 287 291 286 288 289 290 290 289 285 288 291 291 285 289 289 285 290 291 293 291 295 297 294 294 295 294 287 293 290 288 288 291 292 292 293 292 289 291 293 293 293 293 293 293 293 293 293 294 293 292 291
299 299 299 300 300 300 300 300 300 300 301 294 292 291 292 292 293 292 288 284 286 288 288 287 286 284 286 284 286 287 287 286 288 288 291 288 286 289 286 288 290 291 290 289 288 290 291 292 294 294 292 288 293 292 292 297 291 293 291 292 292 293 287 291 290 286 286 288 289 290 291 290 289 289 291 291 291 289 291 290 293 291 290 291 291 289 290
299 299 299 299 299 300 300 300 300 300 300 295 293 289 295 293 294 294 290 282 288 285 287 287 284 282 286 287 287 286 287 289 290 285 291 291 291 291 290 289 289 289 289 288 289 292 292 293 295 299 297 298 296 297 296 297 295 291 291 294 291 291 289 288 288 286 285 287 289 289 288 287 285 286 290 291 292 293 294 294 295 294 294 290 287 289 296
298 298 299 299 299 299 299 300 300 300 299 294 292 291 293 290 289 290 289 281 282 284 285 283 284 286 288 289 287 289 289 289 290 284 284 290 291 293 292 290 287 287 288 291 296 296 295 296 297 298 299 297 295 296 297 296 297 297 294 289 289 293 291 288 289 285 286 286 287 288 286 279 281 293 295 294 292 292 290 290 292 294 295 293 295 295 297
298 298 298 298 299 299 298 298 299 300 299 297 297 293 295 295 293 291 286 279 280 284 282 281 283 286 286 288 289 287 287 288 288 290 287 289 291 293 292 291 290 285 293 298 298 298 299 299 298 298 297 296 295 295 296 294 296 297 298 293 290 290 291 288 288 286 283 286 287 284 279 281 293 296 297 297 296 295 293 293 294 295 296 296 295 296 296
298 298 298 298 298 297 298 297 298 297 298 298 297 292 295 296 292 289 287 283 279 280 279 279 285 285 287 288 287 288 289 290 291 291 291 289 288 291 293 292 290 291 300 297 298 297 292 288 289 290 290 292 292 292 292 293 294 296 297 298 293 289 289 289 288 287 286 284 284 278 279 288 294 295 296 298 297 295 293 291 294 295 295 296 295 296 297
297 297 297 297 297 297 297 297 297 297 297 297 295 294 296 294 290 287 286 282 281 283 284 282 283 282 284 284 286 287 289 288 289 291 288 291 289 289 293 295 295 297 299 300 296 292 287 286 283 284 284 285 285 285 288 291 293 294 295 296 296 293 291 290 285 287 282 283 284 284 289 287 290 290 291 294 292 292 290 286 290 295 296 296 295 296 297
296 297 297 296 296 296 296 296 296 296 296 297 296 295 295 296 293 290 290 286 280 283 284 278 282 283 284 283 285 283 284 285 286 286 289 292 290 292 293 296 297 299 300 296 290 290 286 285 282 280 282 281 277 280 286 285 287 288 289 290 293 295 289 288 286 283 286 283 282 283 283 281 286 293 296 299 298 298 297 292 289 296 297 298 297 296 297
296 296 296 296 296 296 296 296 296 296 296 296 295 294 295 296 295 293 290 286 283 276 281 285 287 285 283 282 285 283 282 282 283 284 283 284 287 291 293 296 297 300 298 295 291 288 285 282 280 280 277 280 284 284 280 285 284 286 288 287 291 293 295 290 288 285 284 283 281 281 280 284 292 292 295 297 298 297 296 290 287 295 297 298 298 297 297
296 296 296 296 296 296 296 296 296 296 295 295 293 293 292 296 294 291 288 286 284 280 287 289 288 287 283 282 284 283 284 282 284 281 281 283 285 286 288 295 297 297 295 292 286 285 285 283 282 282 283 285 283 281 286 284 283 282 285 287 287 288 288 288 284 282 285 284 282 281 285 286 289 294 295 297 298 299 293 281 283 295 297 298 298 297 297
295 296 296 297 296 296 296 295 295 295 295 296 294 292 292 296 295 293 289 285 282 282 286 289 287 283 282 283 282 285 287 284 283 284 284 285 284 284 285 289 289 295 297 289 285 285 284 283 280 280 279 285 286 287 279 284 283 282 282 284 283 284 284 286 283 284 285 285 284 285 286 291 291 294 296 297 299 296 286 281 290 294 297 298 298 298 298
294 294 295 295 296 296 295 295 295 295 295 295 296 293 292 294 295 294 289 285 283 279 287 290 290 287 289 291 287 288 287 287 286 282 282 282 285 287 287 288 294 287 289 287 287 285 283 282 285 284 281 283 286 282 287 283 283 286 286 283 283 284 285 285 286 284 283 285 284 284 288 290 293 290 297 298 294 284 284 294 292 293 293 295 298 298 298
295 295 295 295 295 296 295 295 295 295 294 295 293 288 291 294 294 293 288 283 284 282 286 288 289 286 289 287 285 284 285 285 286 284 283 281 285 288 287 284 288 287 284 287 284 286 284 281 283 284 283 285 285 288 286 286 288 285 285 287 285 285 284 282 283 286 285 284 283 281 280 290 296 294 294 296 290 291 290 287 289 288 290 292 294 296 297
296 295 294 295 295 295 295 295 294 294 294 294 293 289 288 293 293 294 293 289 284 280 282 290 290 288 289 288 290 289 287 284 285 283 286 287 290 287 281 281 286 287 284 286 282 284 285 283 285 283 286 286 286 287 283 285 284 287 288 287 287 290 285 285 285 288 283 283 282 283 289 290 297 296 291 294 294 292 288 290 288 290 289 291 291 292 292
294 295 295 295 295 295 295 294 294 294 294 294 293 291 286 290 293 294 294 292 285 282 284 290 290 289 291 291 291 292 291 290 291 291 288 285 289 289 288 288 286 288 288 289 286 286 287 286 287 286 284 284 287 285 287 284 282 285 287 289 282 290 289 290 286 290 287 286 289 290 287 294 297 297 294 297 296 294 290 290 292 291 288 288 293 293 292
293 294 295 295 295 294 295 294 294 294 294 294 293 289 285 288 290 293 292 286 288 289 290 288 289 289 290 290 292 293 294 295 293 292 291 287 285 288 288 288 287 292 290 291 288 288 288 289 286 288 286 287 285 285 286 287 285 286 285 290 290 292 292 287 289 289 293 291 288 289 287 291 294 292 292 298 295 290 288 289 291 289 290 291 294 291 290
292 293 294 294 294 295 294 294 294 294 294 294 294 289 287 289 290 290 288 287 284 281 284 286 284 280 282 283 288 291 291 292 294 294 295 292 284 285 288 291 294 291 290 292 295 290 288 288 287 288 285 287 288 285 284 283 285 287 287 286 287 287 292 289 287 286 289 286 293 287 287 289 292 293 291 294 291 288 287 287 289 289 288 288 288 290 290
291 292 293 293 294 294 294 294 294 294 294 294 293 293 293 289 287 289 285 279 280 279 275 279 282 285 288 291 291 290 291 292 294 294 294 293 290 286 284 290 294 293 291 294 290 291 289 287 285 286 285 287 289 285 289 286 284 287 285 287 287 286 290 290 289 285 288 289 290 287 287 290 293 292 292 292 289 287 286 286 285 285 285 285 285 286 288
291 291 292 292 293 293 294 294 294 294 294 294 294 287 287 286 289 290 287 286 284 281 275 275 279 288 290 288 286 289 292 293 292 292 293 294 294 293 290 291 291 293 294 295 291 291 290 289 287 288 286 286 292 287 286 289 287 289 288 288 290 287 291 287 289 287 289 287 286 288 287 288 289 289 290 292 292 289 286 285 285 285 286 285 284 283 286
290 291 291 292 292 293 294 294 294 294 295 294 292 287 287 286 290 287 284 284 279 276 277 274 280 284 288 286 290 291 292 292 293 292 292 293 293 294 292 291 289 290 290 290 292 291 290 289 288 287 289 287 290 287 287 287 287 286 287 288 289 289 287 291 289 286 286 287 289 287 287 285 288 288 289 289 290 289 287 285 286 285 285 284 285 284 284
290 290 291 291 292 292 293 293 294 295 294 294 292 286 285 285 287 289 288 286 281 275 277 279 279 282 288 286 291 291 292 292 292 292 292 292 292 292 291 291 290 290 289 289 287 289 288 287 287 287 289 287 289 286 284 286 287 287 288 288 291 290 290 290 288 287 288 291 288 291 288 286 291 293 292 290 291 292 290 288 287 286 285 285 285 285 285
290 290 290 291 291 292 292 293 294 294 294 294 285 284 283 286 287 289 289 288 286 281 279 280 282 281 275 281 292 291 290 292 292 291 291 291 291 291 290 290 290 291 291 290 290 290 289 289 290 287 286 287 289 285 286 284 284 285 288 291 291 293 295 294 294 293 290 289 292 292 288 289 290 292 293 293 292 292 292 290 289 288 286 285 285 286 287
290 290 290 290 291 291 292 293 293 294 294 287 284 281 277 280 287 286 289 288 286 284 277 275 273 276 284 283 284 289 290 291 291 291 291 290 290 290 291 290 290 293 292 291 289 287 289 288 284 286 285 289 288 285 284 285 286 287 291 290 293 292 290 295 296 293 291 287 289 291 291 289 292 293 293 293 292 291 292 291 288 286 285 286 286 285 284
290 290 290 290 290 291 292 292 293 294 293 285 280 274 272 272 281 287 288 286 286 282 279 279 275 281 280 285 284 286 288 290 289 290 290 291 291 291 293 293 291 293 290 291 290 288 290 287 285 285 286 286 289 286 285 285 285 287 288 290 292 292 292 293 291 292 289 288 289 290 291 290 286 289 291 291 288 288 289 288 286 286 286 285 283 282 284
289 290 290 290 290 291 292 292 293 293 289 284 281 277 277 280 284 286 289 287 286 281 277 273 275 276 277 282 284 287 288 289 289 288 289 292 289 292 291 293 290 294 293 290 289 288 288 288 289 286 286 289 291 286 286 285 285 287 288 289 289 291 292 292 291 287 288 289 288 288 287 286 286 291 292 291 289 288 288 285 284 284 283 282 280 280 280
289 290 290 291 291 291 291 292 293 292 288 290 293 294 292 291 291 290 289 286 283 280 281 277 273 278 280 283 283 283 286 287 287 288 286 291 288 290 288 288 289 288 293 292 288 286 287 288 285 286 286 287 286 285 286 286 288 285 287 284 281 281 283 283 284 285 286 287 287 291 288 288 288 286 283 286 287 287 285 283 281 282 282 281 280 280 280
289 290 290 290 291 291 291 292 293 293 292 286 281 283 286 291 290 290 287 284 281 282 282 277 275 275 276 286 281 285 288 285 285 288 284 286 287 289 286 287 288 287 285 286 286 286 284 285 288 287 285 283 286 286 284 287 289 283 281 281 281 281 283 283 283 283 281 280 279 280 281 285 284 283 283 284 282 282 282 282 282 282 280 280 279 279 279
290 290 290 290 290 291 291 291 288 286 282 281 281 282 287 291 291 291 287 283 276 276 275 277 279 276 277 279 279 284 285 285 285 288 286 285 287 287 287 285 287 285 285 289 285 284 284 285 288 285 282 286 286 284 286 288 283 282 281 280 276 280 284 284 283 279 280 278 279 281 283 284 286 284 283 282 281 281 282 281 282 283 281 279 279 278 278
289 289 289 290 290 291 288 288 285 281 278 279 280 288 290 290 290 287 285 286 281 276 276 278 279 275 277 275 278 283 286 285 285 285 286 286 284 285 286 287 283 285 286 286 284 285 284 286 287 284 287 284 282 286 287 285 283 280 278 276 274 274 275 277 278 280 280 280 280 281 282 283 285 284 281 281 281 281 282 282 281 281 281 279 279 278 278
289 289 290 289 288 283 280 280 283 281 279 284 288 290 290 288 286 285 283 282 283 283 276 275 274 278 279 279 281 283 286 282 285 284 285 285 284 285 286 285 283 285 283 283 284 285 285 286 284 285 283 283 285 275 274 275 278 277 274 272 272 272 273 274 276 279 280 279 279 279 279 279 278 279 281 280 280 281 281 282 282 281 280 279 278 277 276
289 289 284 281 279 275 275 279 280 285 289 288 287 283 281 281 277 279 279 277 280 281 277 278 273 276 276 274 277 284 285 283 283 283 283 287 284 281 285 285 285 285 279 282 284 285 284 281 281 284 284 271 270 272 272 271 271 270 270 270 270 271 271 272 273 275 278 279 279 277 277 277 277 277 280 279 280 280 279 278 278 278 279 278 276 275 274
287 283 280 279 277 274 276 279 287 289 285 285 283 279 276 275 275 273 273 275 276 274 278 276 274 276 274 276 280 285 284 283 281 284 281 285 284 280 283 282 283 285 281 283 283 288 280 279 280 282 285 275 272 269 270 269 268 268 268 268 269 269 270 270 271 272 274 276 276 278 280 280 280 279 279 278 275 274 274 275 275 275 275 274 274 273 272
279 277 276 275 275 277 283 286 288 282 282 277 275 276 271 273 272 270 275 271 271 273 274 271 276 275 276 274 275 279 284 282 282 282 284 282 286 283 284 284 284 283 279 280 282 286 283 278 280 282 284 277 270 267 267 267 267 266 267 267 268 269 270 269 270 272 273 274 274 274 277 279 280 280 278 276 274 272 271 271 272 272 272 272 272 272 271
278 277 276 275 277 279 281 283 282 278 275 273 272 271 270 269 269 269 270 269 268 268 274 272 274 274 277 276 276 276 282 282 280 280 285 281 285 285 283 280 285 279 278 280 282 283 282 281 280 280 283 267 265 265 266 265 265 265 265 266 267 268 269 269 269 269 270 270 270 271 271 273 274 274 274 274 273 272 271 270 270 270 270 271 270 270 271
279 278 279 282 283 283 280 278 274 272 270 272 269 265 265 267 270 270 270 265 265 267 270 272 269 270 271 275 274 276 278 281 280 281 282 278 283 281 279 277 277 279 276 279 283 280 283 280 276 278 266 262 264 264 264 264 264 264 264 265 266 266 266 267 267 267 268 268 268 268 267 268 268 269 270 270 269 268 268 268 267 268 269 270 270 269 268
287 285 284 280 278 275 275 270 270 270 263 264 264 264 266 265 265 264 265 269 270 267 269 273 272 275 276 278 275 278 277 282 279 277 279 278 280 278 275 275 277 275 277 279 279 279 279 276 279 273 261 262 261 262 262 263 264 264 264 266 266 266 266 266 266 265 266 266 266 265 265 265 265 265 266 266 265 265 265 265 266 267 267 267 266 266 265
282 280 274 270 269 267 270 262 270 267 264 264 262 259 261 262 265 265 264 265 265 265 268 264 266 266 266 275 272 274 277 280 281 277 274 275 276 274 274 273 274 278 280 276 277 278 279 269 266 263 262 261 261 260 261 261 263 263 264 264 265 266 267 266 266 265 265 265 265 264 264 264 263 264 264 264 264 263 263 263 264 264 265 265 264 264 265
274 270 268 265 263 265 266 261 267 263 258 261 265 261 261 260 263 263 263 267 265 264 267 266 266 266 265 272 275 275 276 273 279 275 272 274 272 272 273 273 273 273 275 273 273 273 272 266 263 262 260 259 259 259 260 260 261 262 263 263 264 264 265 264 264 264 264 263 264 263 262 262 261 261 262 262 263 264 264 263 264 264 264 263 263 263 263
268 265 264 261 259 262 261 258 260 260 262 263 262 263 262 263 263 263 267 266 264 265 263 264 264 264 265 272 272 271 270 271 272 270 270 271 272 269 273 275 275 272 271 272 272 273 270 264 261 260 258 258 258 258 258 259 259 261 261 260 262 263 263 263 263 263 263 262 261 261 261 261 260 260 259 260 260 261 261 262 263 263 263 262 261 261 261
269 268 267 263 259 260 264 259 260 261 262 262 264 264 263 263 264 264 265 265 263 265 264 264 263 264 266 269 271 272 271 271 270 271 273 270 269 271 274 272 268 268 271 270 271 269 262 260 259 258 258 258 258 258 257 258 258 258 259 260 261 262 262 262 262 262 262 262 261 261 260 260 260 259 259 258 258 259 260 260 261 261 261 260 260 260 260
262 265 264 259 257 261 261 261 264 263 262 262 264 265 265 265 263 263 266 266 265 264 262 262 265 269 268 274 273 270 270 270 271 270 272 271 273 269 269 267 265 264 265 267 264 260 259 257 257 257 257 257 256 256 256 256 256 257 257 258 258 259 261 262 261 261 261 261 261 260 260 260 259 259 258 258 257 258 258 259 260 261 261 261 260 260 260
264 260 259 257 260 262 262 263 261 262 264 264 265 265 264 262 262 264 265 264 262 262 263 262 265 268 269 270 268 269 267 269 268 267 269 267 266 265 266 266 266 263 262 259 258 257 257 256 257 256 256 256 256 255 255 256 256 256 256 256 257 257 258 260 261 261 262 261 261 261 261 260 260 259 259 258 257 257 257 258 258 258 259 259 259 259 259
260 258 259 259 261 261 261 262 261 260 263 263 262 262 262 261 261 263 264 261 261 260 262 266 267 268 269 268 267 267 266 266 266 268 267 263 262 263 266 264 262 262 259 256 256 255 256 257 257 255 255 254 255 255 255 255 256 256 256 257 257 257 257 257 258 258 259 260 260 260 260 259 259 259 258 257 257 257 257 257 257 256 256 257 258 258 257
262 260 259 260 258 256 258 259 258 258 260 260 260 261 261 260 261 261 263 260 259 260 266 265 265 265 266 266 265 264 265 270 267 263 262 260 261 263 263 261 258 256 256 255 255 254 254 254 255 255 254 254 254 255 255 255 255 255 256 256 257 257 257 257 257 257 257 258 259 258 258 258 258 258 258 259 259 258 257 256 256 256 255 255 255 256 256
261 260 259 261 261 259 259 260 261 260 260 260 260 262 261 259 261 261 262 259 260 265 264 264 265 264 263 262 263 266 268 267 264 264 261 260 259 258 257 256 255 254 255 255 254 254 254 254 254 253 254 254 255 255 255 255 255 255 255 255 255 256 256 256 256 257 257 258 258 258 258 259 260 261 262 262 261 260 258 256 255 255 255 255 255 255 255
Wind_Speed
17 17 16 15 13 12 11 9 8 8 9 3 1 2 2 4 7 6 6 5 6 6 5 3 5 6 4 0 4 4 3 3 4 4 3 2 2 2 2 1 2 2 3 3 3 5 2 8 7 7 9 9 11 1 22 18 17 18 7 10 5 12 6 10 5 6 3 1 1 2 5 5 3 5 3 10 13 14 11 6 2 6 2 4 3 8 6
16 16 15 14 12 10 8 8 8 8 10 5 3 1 6 7 8 7 2 4 4 5 7 9 7 4 2 3 2 3 2 4 5 3 6 4 3 4 2 2 3 2 1 5 6 5 3 4 5 3 3 3 6 4 16 20 15 19 8 10 10 7 5 13 7 5 1 4 3 1 3 1 8 9 11 13 12 12 3 3 1 3 8 9 9 13 9
14 14 14 12 12 10 7 7 8 10 13 9 3 1 5 8 5 6 4 1 1 5 1 2 4 3 4 2 2 3 1 3 7 6 6 3 3 3 1 3 3 2 1 3 4 7 4 2 4 3 1 3 2 4 9 18 15 14 12 13 9 5 11 17 18 20 15 12 12 14 12 17 13 14 15 12 14 18 12 12 4 9 6 10 6 11 3
13 12 12 12 10 8 7 6 8 10 11 13 4 1 4 2 6 3 3 1 1 5 3 4 4 7 6 5 2 3 3 2 4 6 4 4 5 3 3 2 3 1 4 3 2 8 6 2 2 5 2 3 1 4 10 14 14 16 9 7 11 4 10 13 16 20 20 19 13 4 9 8 5 7 14 16 11 9 8 2 5 13 7 8 8 10 6
11 11 10 9 8 8 6 5 8 9 12 13 5 5 2 2 4 6 6 3 2 4 3 3 3 5 6 3 4 6 6 3 2 5 2 4 4 3 2 4 5 2 3 3 2 5 6 5 4 4 5 3 2 6 8 12 12 9 9 10 3 3 7 12 12 17 13 7 6 16 23 23 20 17 13 9 9 6 10 12 13 7 3 8 6 10 11
7 9 9 8 7 7 6 5 6 8 10 13 5 2 3 1 3 1 4 2 7 6 7 6 5 3 8 4 6 4 4 3 3 3 3 5 5 3 1 5 6 9 7 5 2 5 3 6 6 3 2 1 3 4 5 11 12 12 3 9 7 8 12 14 12 14 6 10 11 13 13 15 20 23 24 24 21 17 15 15 17 13 11 16 19 20 22
5 5 7 7 9 9 8 7 6 7 8 6 3 1 1 2 2 2 5 1 5 7 5 9 6 5 4 2 6 6 9 9 6 3 3 3 5 6 3 7 9 8 8 6 3 3 5 6 3 5 6 8 4 2 2 5 5 11 5 3 1 3 5 10 10 10 8 8 11 13 16 13 13 15 18 20 22 23 22 21 21 20 17 21 25 23 26
4 6 9 7 7 6 5 6 5 5 7 4 2 4 1 2 1 2 1 3 2 8 4 5 7 6 6 4 5 5 7 8 6 4 6 4 6 7 7 8 11 11 10 9 8 10 7 1 5 4 4 1 3 6 6 2 8 10 10 4 3 3 5 13 9 8 8 7 11 12 14 14 14 16 18 18 17 19 21 19 19 18 19 22 24 21 21
4 5 5 6 6 6 5 5 5 4 5 3 3 3 4 3 3 3 1 2 0 1 2 3 4 4 5 6 4 5 8 8 8 5 7 9 7 10 16 13 11 12 12 12 15 13 12 9 4 6 9 9 8 7 3 3 5 9 7 5 2 4 3 5 7 9 5 4 14 13 13 14 17 17 18 19 19 17 18 19 23 21 22 22 15 13 19
4 5 5 6 6 6 6 5 4 5 5 2 1 2 3 2 5 3 3 1 2 2 3 2 1 5 6 5 6 4 6 2 5 3 6 8 8 10 14 8 7 6 13 17 18 15 12 12 9 2 7 4 3 4 4 4 7 7 11 10 10 9 7 10 9 9 11 9 10 14 12 8 9 16 22 24 24 26 27 27 23 17 19 16 15 23 27
5 5 6 7 6 6 6 7 6 6 2 2 2 2 2 2 1 2 3 1 2 3 0 4 6 1 0 4 4 4 1 3 4 7 3 7 11 9 8 7 7 5 12 18 13 10 10 9 8 5 3 3 4 6 6 5 6 7 7 5 5 9 10 9 8 11 8 9 6 10 11 16 18 19 28 29 28 27 21 20 21 19 15 14 19 23 15
6 6 6 6 7 6 6 6 6 7 3 4 3 2 3 3 2 3 1 1 1 1 2 3 4 1 2 2 4 4 3 4 5 5 6 2 3 4 5 5 4 7 7 4 8 8 9 8 7 6 3 0 2 3 4 8 7 7 3 4 7 12 12 8 6 7 7 9 9 10 16 16 16 8 12 20 23 20 21 21 22 19 19 22 25 23 18
6 7 7 7 6 6 6 5 4 4 5 3 2 1 2 3 2 1 1 0 2 2 2 2 3 7 7 6 5 7 7 5 6 7 6 7 2 4 6 7 10 13 3 10 10 10 7 5 5 3 0 1 3 4 6 8 11 8 7 4 6 10 10 6 5 4 4 9 11 12 14 6 4 9 15 14 8 12 17 22 24 26 28 27 25 24 19
6 6 6 6 5 6 6 6 6 4 3 4 1 1 1 1 1 2 1 0 4 2 2 6 5 6 8 8 6 6 5 6 7 6 11 5 6 6 4 9 10 4 7 8 9 8 3 2 2 2 2 2 2 4 8 8 7 9 14 11 5 11 9 8 6 4 9 8 13 14 3 4 5 6 10 16 20 23 22 20 24 22 13 14 19 23 22
3 5 5 4 4 5 4 5 5 3 3 2 1 2 2 1 1 1 1 1 3 2 2 7 7 7 5 4 3 5 5 5 4 7 8 5 5 6 6 5 3 6 6 7 2 2 3 3 3 3 2 5 8 8 3 5 1 3 2 4 2 8 11 3 7 4 4 11 9 6 7 9 12 18 15 24 19 16 16 11 16 8 20 24 25 28 27
5 2 1 3 1 2 5 5 4 4 3 2 0 1 1 1 2 2 1 1 1 6 11 13 2 4 1 3 4 7 7 4 5 4 4 3 7 10 7 2 5 8 6 2 2 4 3 4 5 6 7 6 2 1 4 3 2 1 3 2 2 4 8 4 9 6 6 5 9 9 12 17 18 10 12 14 11 9 9 4 19 19 20 23 25 26 19
7 6 3 3 3 3 4 5 5 5 3 3 1 1 0 3 2 2 1 1 3 12 5 3 4 5 4 6 4 7 6 7 3 3 4 7 7 5 2 1 3 10 7 4 1 3 4 5 4 4 4 3 4 3 2 3 3 3 3 2 4 7 8 6 3 2 7 9 10 12 7 15 5 14 15 13 13 15 13 6 15 30 19 19 22 25 21
6 7 5 6 3 4 7 5 6 5 5 6 2 0 1 2 2 4 1 3 4 8 6 5 2 7 11 7 5 3 2 4 3 3 7 6 5 2 1 4 5 3 8 10 4 6 8 7 10 7 9 3 2 2 7 6 5 7 10 12 6 4 2 7 11 9 11 14 7 4 7 8 7 16 15 14 17 15 12 14 26 3 17 20 20 21 19
3 1 4 3 7 8 6 6 6 6 6 6 2 0 1 2 2 3 1 3 5 7 2 11 10 11 6 1 6 4 4 6 4 3 5 6 7 8 4 1 6 4 1 6 6 7 7 6 3 5 7 3 2 7 2 6 7 2 5 7 2 3 4 2 4 9 11 11 13 12 12 4 8 6 19 19 15 10 23 19 5 10 9 14 18 19 17
7 6 3 1 3 7 7 4 4 5 5 6 4 2 1 2 3 6 5 5 3 10 1 2 2 11 5 8 9 8 7 7 7 7 6 10 2 2 2 2 0 4 0 3 10 5 7 10 7 2 7 7 7 3 5 7 1 7 6 13 13 13 11 10 10 6 1 2 5 3 12 9 20 15 15 18 19 21 5 4 2 2 6 8 10 13 16
8 6 4 4 4 5 8 8 5 5 6 7 5 2 1 3 3 4 5 5 5 10 8 9 10 14 8 10 12 12 11 13 11 11 10 9 3 1 8 7 7 6 7 8 10 10 5 8 8 4 2 5 4 3 7 8 3 6 10 12 10 9 10 6 6 5 11 12 13 12 8 5 19 25 18 18 5 0 3 7 0 1 4 8 6 7 7
11 8 5 4 3 4 6 6 5 7 7 7 6 1 2 2 3 3 4 5 8 11 4 5 2 8 8 12 14 14 16 19 19 11 9 8 7 10 6 7 2 5 2 3 3 2 4 3 2 5 8 2 1 9 6 7 8 3 3 6 4 5 12 13 17 13 12 16 17 6 3 9 11 12 6 12 10 0 1 1 7 6 4 3 6 8 9
11 10 9 6 3 1 5 5 7 7 7 8 5 2 3 2 2 2 1 6 5 8 7 9 7 11 11 16 17 17 18 16 15 14 15 13 9 6 10 10 6 4 2 5 11 9 9 9 10 6 6 8 10 9 6 8 7 7 10 13 11 11 11 5 1 7 10 7 2 0 1 3 10 2 3 15 9 1 2 0 7 6 6 8 10 8 6
11 11 10 9 7 4 3 9 9 8 9 9 7 3 3 4 3 2 0 5 6 9 10 11 10 13 16 24 24 17 14 15 17 18 15 13 13 12 9 8 5 3 5 7 10 10 5 4 4 4 8 5 8 9 11 11 11 7 8 7 4 2 11 6 4 3 9 13 14 4 4 3 6 7 3 7 4 2 1 2 4 1 4 3 2 8 8
11 11 11 11 10 9 7 7 10 10 9 10 9 5 5 3 4 6 4 6 4 5 9 6 15 23 18 13 12 13 20 23 23 23 19 16 18 17 19 17 12 10 12 12 3 5 3 8 4 5 12 4 9 9 7 8 3 6 7 8 5 6 4 9 9 4 15 16 6 6 6 7 10 7 7 7 3 5 3 3 3 1 2 4 4 4 5
12 12 12 12 12 12 10 10 11 11 11 11 9 3 5 6 7 8 4 3 4 6 9 13 19 9 11 14 17 19 18 18 19 22 22 21 21 23 23 16 13 11 10 7 6 12 8 7 6 6 10 6 9 9 8 8 2 7 12 11 8 1 10 8 10 10 9 5 5 6 5 6 8 6 5 6 7 7 4 4 4 3 5 4 4 4 2
13 13 13 13 13 13 13 13 12 13 13 12 6 4 5 3 9 11 7 5 3 7 11 14 10 5 6 17 14 11 14 17 19 21 24 23 22 20 18 18 17 16 15 13 9 9 6 8 8 10 10 6 7 6 3 5 5 4 8 4 7 9 13 11 7 10 13 15 15 10 10 8 7 4 2 2 2 4 5 5 5 5 5 4 5 3 3
13 14 14 14 14 14 14 14 14 15 14 14 7 4 3 4 7 9 9 10 11 12 9 9 3 3 8 17 14 14 15 17 19 19 21 23 25 23 21 21 18 15 13 11 10 11 8 12 13 4 4 3 8 6 1 0 2 4 8 10 11 14 17 13 12 15 21 17 3 9 3 4 7 11 9 8 8 9 10 10 8 7 6 7 9 7 2
14 14 15 15 15 15 15 15 16 15 15 3 3 1 3 6 8 10 13 13 12 12 10 11 9 8 10 7 2 11 13 17 18 20 21 21 23 23 22 22 20 16 14 12 10 9 11 11 5 7 5 5 6 5 6 7 6 11 15 13 13 10 7 13 17 17 5 7 15 12 6 8 8 11 11 13 10 10 12 10 9 10 10 9 9 8 12
14 15 15 16 17 16 17 16 16 17 9 5 1 0 2 2 2 4 7 10 9 5 6 5 7 8 3 5 11 12 12 15 17 20 21 19 20 20 20 20 20 18 13 12 8 13 8 5 2 2 2 0 4 3 5 5 9 14 8 6 12 8 5 12 14 12 11 4 5 11 9 6 10 13 13 13 10 9 10 10 9 7 6 8 9 6 5
15 16 16 17 18 18 18 18 16 17 6 3 3 0 0 3 1 1 8 5 4 2 4 4 10 7 13 7 4 12 15 16 17 18 20 20 18 19 17 17 16 14 15 12 12 8 6 9 5 4 0 2 3 5 6 6 8 10 6 10 10 10 11 12 6 7 5 3 6 8 8 7 5 5 8 9 6 5 4 3 4 7 7 6 4 4 5
16 16 17 18 18 19 19 19 18 15 4 8 7 5 5 4 5 6 5 3 3 2 3 5 7 5 7 4 5 6 11 15 13 11 10 11 14 13 13 17 12 12 12 12 8 6 10 6 8 7 7 6 4 3 4 4 10 13 6 8 5 8 10 9 8 5 2 6 6 2 4 5 4 14 14 11 9 7 7 6 6 9 10 8 7 7 6
16 16 17 19 19 20 19 19 20 13 6 9 17 16 13 10 11 10 6 4 1 2 2 5 8 5 5 2 2 2 5 7 11 11 11 11 10 9 11 8 7 5 6 10 8 6 2 4 3 8 5 3 4 4 4 9 15 1 5 3 0 2 2 3 1 1 4 5 6 14 11 12 11 8 2 4 7 8 10 11 8 9 10 10 9 8 7
18 18 19 19 20 20 19 19 18 19 14 2 3 6 6 10 9 8 6 2 1 2 4 5 6 8 11 2 3 3 7 10 11 12 11 4 4 9 8 6 7 8 4 9 3 3 3 1 7 6 3 1 2 5 7 12 10 3 1 2 2 3 2 1 2 1 3 2 5 2 2 1 4 4 4 6 6 6 8 10 11 11 7 8 6 7 7
18 19 20 20 20 19 19 17 9 4 6 4 4 1 7 14 12 11 9 5 4 5 5 5 4 9 9 5 8 4 2 4 9 12 10 3 0 8 6 7 7 11 4 2 3 4 4 6 7 7 8 4 5 8 8 10 4 4 2 1 4 2 0 1 0 3 4 3 3 3 0 5 11 6 7 5 7 7 11 7 7 12 11 6 8 6 5
19 20 20 20 19 15 8 6 3 3 3 4 4 6 13 12 13 8 10 9 6 4 4 4 7 12 10 10 8 3 3 3 1 3 1 4 1 1 2 7 8 7 3 5 7 4 6 3 5 9 7 8 9 9 8 5 10 4 3 3 3 3 1 1 4 5 2 2 3 1 1 1 6 8 5 5 6 5 8 10 5 6 10 10 8 7 6
20 19 18 15 6 2 4 4 2 4 3 2 2 5 4 1 2 3 4 6 5 4 5 4 6 8 9 8 3 3 7 8 2 2 3 7 6 2 4 7 9 4 3 2 4 8 4 2 2 6 8 12 8 1 5 4 5 6 5 3 2 3 2 4 6 4 1 3 4 2 1 4 4 4 6 6 6 6 9 10 12 13 14 14 11 8 7
18 15 3 2 2 2 2 2 3 0 7 6 5 4 3 2 3 3 4 5 5 7 6 4 8 5 1 3 5 1 3 3 1 5 2 2 6 2 1 2 3 6 7 5 5 3 4 2 3 7 5 3 4 5 4 5 4 5 4 3 3 3 3 4 6 4 3 2 2 2 3 3 4 4 9 8 7 7 4 3 5 4 7 8 8 10 11
11 3 2 2 1 2 1 2 3 7 3 4 1 1 1 1 1 2 3 1 1 4 1 3 5 3 4 4 4 2 4 4 7 5 9 4 4 3 1 7 2 2 2 4 6 4 3 0 1 2 9 4 4 2 3 4 5 4 4 3 3 4 4 4 4 4 3 2 2 2 3 6 9 9 4 8 7 7 6 6 8 7 9 9 10 8 9
2 1 0 0 2 1 2 2 7 3 2 2 1 1 2 0 2 2 1 2 2 1 1 5 1 4 3 3 4 5 1 3 11 11 9 2 3 4 2 2 1 3 6 8 4 4 6 5 2 3 11 5 5 5 4 3 3 4 3 3 4 4 4 3 4 5 5 4 3 3 3 1 3 7 8 9 10 11 9 8 8 8 9 10 9 10 9
1 1 1 1 1 2 3 5 2 1 2 1 1 1 0 1 1 1 1 2 1 1 0 4 4 4 2 2 2 4 1 2 4 4 1 4 1 3 5 5 1 2 2 6 1 3 2 3 5 10 7 3 3 3 4 4 3 3 4 3 4 4 4 4 4 5 3 3 5 6 7 8 9 8 8 8 9 10 10 10 10 10 12 12 12 10 9
2 1 0 2 3 3 2 0 2 1 1 0 0 1 1 2 0 0 0 1 1 2 3 2 6 5 6 4 4 3 5 1 3 2 1 4 0 2 3 2 1 3 3 2 5 3 5 8 5 5 0 2 4 4 4 3 4 3 4 5 4 4 5 4 4 5 5 5 6 7 7 10 11 10 8 10 11 11 11 12 13 11 12 11 11 10 9
13 8 2 1 1 0 0 2 3 2 2 3 2 1 2 1 1 1 2 0 0 1 3 2 4 6 7 3 4 4 3 3 3 2 2 4 1 2 4 2 2 3 3 2 2 4 6 6 8 4 4 3 4 4 4 4 3 2 3 4 4 5 5 4 5 8 7 8 9 8 9 11 12 10 10 12 16 16 12 11 11 12 10 11 10 10 9
3 2 1 0 1 2 1 2 2 2 3 2 2 1 3 3 1 3 4 2 3 3 2 6 7 8 5 2 2 3 3 3 2 1 4 1 3 2 2 3 4 1 3 2 1 6 7 2 2 4 3 4 3 5 5 5 4 4 5 6 6 6 5 6 7 9 10 9 10 10 11 11 11 11 12 12 13 16 13 12 10 11 11 11 12 11 8
2 1 1 2 2 2 1 1 3 3 2 2 2 0 1 2 4 3 4 2 0 8 8 5 6 5 8 6 2 2 1 3 3 1 1 1 4 2 2 3 1 1 3 4 2 3 1 1 3 4 5 4 4 5 5 5 5 5 4 7 8 7 7 7 8 8 8 10 10 11 11 10 12 12 12 12 11 9 12 13 9 11 11 12 11 11 7
4 2 1 4 5 4 2 1 2 2 1 1 1 2 4 5 5 7 3 2 5 7 8 8 7 5 7 4 1 3 2 2 2 2 0 1 3 1 1 1 1 2 1 2 5 7 3 3 3 3 4 4 4 4 4 5 6 5 8 8 5 7 8 9 9 10 11 11 10 11 12 12 12 14 13 11 11 14 14 11 8 9 10 13 12 10 7
4 3 3 2 4 1 2 3 2 0 1 2 2 2 5 7 7 8 8 4 6 7 10 8 8 7 4 4 2 1 1 1 2 2 1 3 2 1 3 2 1 1 4 6 4 2 2 3 4 4 5 4 4 5 6 7 7 8 8 7 8 9 9 10 10 11 11 10 10 10 9 9 9 9 9 12 12 10 10 11 11 9 11 13 10 10 10
4 1 2 5 3 1 4 1 0 1 2 4 4 4 5 5 6 7 2 1 6 8 8 8 5 3 4 4 1 1 2 2 2 3 2 1 1 2 1 3 2 1 2 3 2 4 3 3 4 4 5 6 5 6 7 8 8 9 8 9 6 7 10 12 12 10 9 10 10 10 10 9 8 8 11 12 11 10 10 10 11 10 11 11 11 11 10
5 3 3 3 1 2 1 2 2 2 1 1 3 4 4 6 7 8 6 5 5 7 6 5 4 4 3 0 1 2 4 5 3 1 2 4 3 1 1 3 4 2 3 4 3 3 4 4 4 5 6 7 6 6 7 7 7 8 8 8 7 8 5 9 10 11 12 11 9 9 9 7 8 9 9 10 14 10 8 8 9 10 10 10 9 10 11
6 5 6 4 2 1 3 5 1 2 2 3 4 5 5 5 6 5 5 7 5 7 6 6 6 4 3 0 1 2 2 3 2 2 4 4 3 3 0 2 3 2 2 3 3 3 5 4 4 6 7 8 9 7 7 7 7 7 7 8 8 8 9 10 11 10 12 12 13 14 11 9 9 8 10 12 9 8 9 10 10 11 10 9 8 9 9
2 5 3 1 3 1 4 4 5 6 8 9 9 8 8 8 7 9 7 7 8 6 2 1 1 1 1 2 2 3 2 1 3 5 4 2 3 3 3 2 2 3 3 3 3 3 4 5 5 4 5 6 7 8 7 7 8 8 8 8 8 9 9 10 10 10 10 11 13 12 13 11 9 10 8 7 8 9 12 12 11 9 8 9 9 8 8
3 4 2 1 2 2 3 4 3 2 5 7 6 4 4 7 9 9 8 6 6 2 3 3 1 2 2 4 1 1 1 2 3 3 4 4 3 3 2 2 2 2 3 2 3 3 3 3 4 5 5 5 5 6 7 8 9 10 12 12 10 9 9 9 9 9 10 12 14 13 13 9 7 7 7 9 11 13 14 9 7 8 7 6 6 8 7
Wind_Direction
81 86 88 89 91 83 74 60 43 27 8 314 24 325 206 86 82 96 155 135 159 145 152 178 183 206 206 120 91 111 115 128 132 130 141 111 105 40 57 250 89 148 118 78 79 154 129 177 187 185 213 233 213 101 191 185 183 186 194 167 232 82 132 108 63 52 23 93 13 358 0 157 179 223 209 178 196 193 202 201 110 181 140 205 237 253 261
77 81 84 86 84 79 64 46 27 12 22 340 348 237 87 101 116 129 111 167 201 194 174 183 188 177 190 108 129 108 137 127 147 160 157 142 139 146 176 47 344 93 130 150 156 194 156 203 198 219 241 259 189 280 199 188 190 187 183 172 196 159 232 129 128 112 82 22 80 306 323 284 201 194 201 196 189 193 183 99 134 172 210 187 182 232 250
81 79 78 78 79 75 62 37 22 12 14 9 335 108 122 111 87 87 133 29 161 198 69 163 146 171 187 132 189 138 134 176 161 158 166 152 137 128 148 168 112 86 298 194 152 185 193 118 231 221 15 250 336 294 241 201 201 196 179 184 186 186 160 159 167 168 172 178 182 183 189 200 195 199 191 199 186 185 182 207 156 218 205 192 202 242 232
79 80 82 81 76 72 60 36 18 11 16 1 321 62 125 138 118 149 80 121 36 281 312 322 192 172 177 150 215 166 180 170 175 162 155 151 155 141 131 118 107 75 52 15 179 173 212 114 182 181 256 298 308 267 235 226 212 184 163 198 172 158 187 199 185 186 191 191 187 157 124 79 126 162 189 200 202 192 199 185 214 220 209 201 230 250 281
84 84 83 82 82 73 59 40 23 15 9 8 343 9 332 117 132 158 155 81 294 255 294 277 259 195 165 182 164 195 196 137 166 186 157 170 141 153 138 149 132 174 166 204 234 214 164 108 94 194 208 227 251 315 274 220 224 160 176 208 129 119 187 205 203 209 202 178 120 147 159 173 181 175 181 179 187 181 193 205 221 217 280 273 248 258 266
74 86 79 80 81 75 68 54 32 25 15 354 352 31 342 137 103 180 149 159 182 208 239 243 257 268 162 191 141 187 173 172 150 153 253 144 163 122 149 180 168 158 162 149 217 182 169 161 191 153 208 286 318 304 246 222 198 173 219 200 183 179 188 191 200 203 141 136 145 155 170 176 177 178 177 185 183 182 192 209 221 204 203 229 233 229 236
69 59 90 77 71 63 53 46 40 22 19 356 318 60 10 324 72 119 146 249 143 171 111 169 228 259 225 222 151 166 182 200 183 142 164 154 185 178 166 191 184 189 177 161 193 185 161 205 213 169 184 190 165 224 254 240 141 181 213 227 299 182 222 172 186 188 187 146 144 164 175 178 178 187 188 187 185 191 196 208 212 209 215 220 233 230 232
98 87 81 85 79 73 69 59 43 28 11 353 26 31 29 40 34 108 153 337 59 159 189 170 183 222 212 225 202 186 187 199 184 171 156 174 200 179 218 185 189 185 183 174 203 201 219 98 177 197 130 266 233 221 220 149 172 166 190 189 274 177 203 152 167 179 199 169 147 168 177 170 184 188 191 191 192 198 205 211 217 219 230 232 235 242 256
114 94 96 96 97 89 82 68 58 62 357 33 18 24 19 14 53 344 190 137 238 125 147 189 192 208 203 218 203 212 204 199 187 200 177 188 178 183 204 197 181 189 187 195 210 210 205 237 266 157 176 199 201 192 222 172 181 175 157 184 193 191 262 158 151 175 201 206 167 173 175 182 187 189 189 188 186 198 206 214 216 204 215 227 239 259 255
112 111 114 112 103 105 93 83 74 76 0 34 25 28 47 5 5 349 359 108 139 164 147 171 186 226 221 206 203 212 211 194 142 207 202 215 208 194 206 203 181 184 192 208 215 209 199 208 225 153 202 238 334 290 287 300 202 187 195 176 177 177 167 169 171 183 201 201 177 170 162 165 205 203 191 190 195 198 203 212 214 209 211 212 213 227 232
132 136 131 124 120 112 114 98 86 77 53 40 20 34 39 1 359 36 359 63 39 331 212 202 200 245 307 230 265 239 247 176 180 199 206 192 220 207 200 192 191 215 208 223 215 197 191 196 209 213 229 235 270 291 316 327 288 231 196 178 173 167 168 175 169 194 180 165 146 157 164 200 210 201 196 187 193 199 201 212 217 215 210 221 222 236 238
150 145 143 137 146 138 117 105 98 114 65 26 355 37 17 18 36 16 37 122 126 108 260 234 207 346 260 298 278 275 252 235 231 214 254 250 219 194 195 202 191 238 234 194 113 126 88 67 61 60 55 106 324 329 304 282 266 249 267 230 180 181 173 178 171 176 165 147 137 168 209 217 220 194 180 197 200 195 205 220 219 215 217 229 237 240 243
160 158 155 172 159 135 134 119 101 101 87 49 25 5 30 359 32 56 8 251 247 201 225 280 347 302 304 298 268 251 249 265 282 273 256 253 281 164 191 199 205 235 68 127 130 123 124 131 82 101 46 349 316 319 273 246 243 246 247 234 196 190 185 164 184 143 91 160 172 196 219 223 111 128 169 183 183 206 211 234 228 216 212 217 231 241 242
174 165 176 168 166 164 156 148 143 129 114 114 67 355 15 53 78 81 59 191 240 285 315 311 277 261 251 257 278 311 325 285 269 276 273 253 242 232 204 204 218 85 125 118 130 114 55 50 81 89 293 76 312 266 231 232 241 228 222 219 209 201 190 185 167 185 168 179 183 205 59 70 168 170 180 148 190 200 196 216 233 223 216 216 233 239 237
171 178 177 186 187 186 162 168 148 144 141 132 79 53 4 19 46 66 54 33 261 252 207 235 221 239 254 289 317 307 299 283 292 256 258 283 276 236 223 214 115 127 146 138 135 117 135 142 203 194 181 148 216 240 99 206 112 72 51 344 252 201 197 171 143 229 165 170 183 217 257 244 211 209 178 189 195 192 198 211 264 213 213 213 217 225 226
311 176 137 182 197 211 175 159 166 155 165 132 208 144 92 108 49 35 38 97 216 256 232 231 285 354 286 254 241 244 253 278 248 284 291 262 251 265 254 184 166 154 172 98 157 137 145 168 202 198 221 208 236 76 230 135 184 329 50 18 273 220 209 227 194 157 139 188 189 194 209 230 224 171 166 185 172 148 101 158 252 236 206 210 216 228 225
9 353 289 229 188 197 193 195 177 169 175 182 230 135 170 140 138 130 152 242 203 240 26 55 190 251 303 284 274 247 231 243 270 278 276 262 258 265 301 152 184 175 176 146 183 121 184 197 205 206 233 172 187 224 129 196 142 132 75 44 209 201 191 150 206 140 197 171 189 208 202 240 188 146 178 159 131 121 121 184 254 245 201 208 207 219 216
347 321 352 353 293 217 225 198 193 186 198 188 213 168 186 119 157 105 143 229 247 270 225 243 230 207 223 222 245 289 329 276 261 273 269 286 305 253 214 162 207 228 155 189 160 201 202 196 205 197 221 159 163 170 225 150 190 176 172 176 154 164 126 190 190 180 193 194 216 278 279 255 150 167 155 148 129 135 157 201 238 111 160 200 199 211 208
118 304 343 350 330 301 252 225 200 203 196 201 170 108 263 163 148 150 112 244 229 252 95 196 211 241 252 291 250 255 253 265 257 230 250 270 242 231 170 229 160 220 223 185 163 202 208 220 192 204 210 189 130 212 131 190 210 137 144 142 133 176 146 150 168 196 188 195 207 223 248 239 129 166 142 143 138 171 200 219 107 143 165 184 184 198 195
22 9 339 4 326 319 282 271 266 225 213 212 190 176 186 149 173 177 188 241 250 264 144 303 215 237 225 232 236 229 245 265 256 250 226 239 255 99 54 257 342 78 306 193 210 198 215 214 195 128 208 187 202 159 225 233 224 179 164 185 182 176 170 184 187 170 74 33 225 276 257 228 155 146 146 162 182 207 177 65 21 90 156 161 194 196 197
36 29 351 13 6 341 320 288 262 258 237 235 226 171 207 186 188 185 204 233 263 280 263 208 231 248 259 260 250 246 236 238 229 235 251 262 303 107 215 223 179 165 184 181 201 196 198 217 189 201 191 177 188 173 215 198 226 238 182 188 202 172 188 184 209 180 170 186 198 213 229 58 147 153 187 197 161 66 194 109 220 17 123 167 156 194 174
2 13 17 24 28 341 304 259 248 247 239 236 238 156 216 176 196 188 220 202 236 240 254 77 308 279 256 249 252 249 246 244 242 246 260 258 240 241 272 277 215 176 178 170 193 195 203 217 151 196 191 152 174 217 184 187 217 182 148 132 236 189 207 185 189 186 188 195 209 175 177 167 182 167 144 184 235 122 304 123 156 170 240 202 154 191 188
351 351 349 355 340 13 316 275 234 254 258 255 248 154 209 151 197 168 135 248 252 270 278 265 252 256 251 255 252 247 247 252 258 250 249 260 273 263 251 255 256 227 237 192 206 207 195 190 210 172 200 195 186 200 224 219 218 156 179 207 214 203 197 27 88 226 241 297 282 194 151 195 202 279 205 178 209 22 56 83 176 196 182 169 169 186 166
336 334 337 329 330 317 307 305 289 247 243 243 237 160 200 182 189 93 212 250 247 273 270 242 242 239 223 232 233 238 255 262 252 246 240 239 257 262 268 267 274 247 248 230 202 207 204 201 218 162 215 192 157 197 188 213 226 182 199 211 233 196 193 225 224 186 172 244 229 143 228 204 201 212 239 201 136 143 92 33 350 340 118 121 57 160 163
321 321 320 321 317 316 297 263 263 266 256 251 255 215 169 149 150 156 180 251 239 221 260 268 223 238 241 239 244 218 220 226 227 231 230 221 228 238 245 233 232 245 234 226 224 209 190 198 206 201 214 205 154 220 204 206 259 125 199 217 171 255 174 203 216 180 196 236 210 199 199 193 195 183 180 219 158 106 85 125 118 58 56 83 48 70 103
310 308 308 309 310 307 302 296 287 274 265 261 253 198 178 202 163 158 158 211 267 277 268 266 267 249 233 232 228 224 224 224 229 231 229 224 221 226 241 253 259 270 288 301 256 217 202 209 199 201 207 236 164 217 213 204 211 173 198 217 189 143 129 215 191 219 250 306 287 202 146 203 221 229 234 200 190 150 145 129 105 97 105 81 48 50 139
296 299 299 300 300 300 297 294 288 281 273 268 263 233 207 186 153 160 164 174 232 255 225 246 274 297 235 234 237 224 216 215 216 218 224 222 222 224 233 239 243 252 259 262 242 220 220 215 202 211 200 221 171 207 148 189 155 167 213 222 132 131 188 203 164 217 235 229 217 142 170 217 209 228 232 257 231 174 171 143 134 141 144 146 109 52 27
291 287 290 292 291 292 291 288 286 283 278 276 271 222 172 187 189 186 181 175 193 239 268 271 254 282 325 278 250 229 220 214 215 217 216 218 217 220 222 227 233 237 231 234 242 220 204 211 213 185 169 191 164 230 129 43 127 210 213 208 186 194 198 176 193 198 223 227 118 161 154 116 173 188 213 220 213 199 194 191 180 186 175 161 140 127 106
283 285 284 286 286 286 286 285 283 282 283 294 125 211 245 226 235 215 210 202 201 229 248 273 291 271 248 259 113 227 219 211 210 215 216 214 213 213 218 222 226 224 225 227 240 241 206 211 166 181 186 206 164 198 136 199 193 222 221 204 202 225 184 192 209 217 251 114 165 177 153 175 191 200 197 210 207 192 210 203 191 182 168 166 165 171 153
281 281 282 282 282 282 281 282 282 280 279 114 110 96 311 282 82 318 232 203 193 215 254 267 258 247 234 242 241 224 217 207 211 211 213 213 212 214 213 217 221 219 218 216 216 231 208 188 218 255 260 344 166 157 182 182 214 232 227 176 209 217 198 210 216 205 217 225 166 175 188 181 184 193 205 211 206 191 203 205 186 152 158 163 165 184 187
282 279 279 279 279 279 279 279 278 278 252 130 95 17 184 264 141 316 90 72 105 227 259 259 260 325 291 251 221 222 212 202 206 207 212 211 212 214 215 213 218 200 211 215 219 234 212 212 148 209 20 228 154 147 161 174 223 250 197 189 206 201 215 226 215 222 216 177 203 188 192 184 193 197 224 220 208 175 185 166 133 138 140 121 113 119 140
283 280 279 279 278 277 277 276 274 275 231 176 188 194 182 202 173 177 135 140 136 225 228 278 288 245 259 254 210 200 197 208 202 204 213 201 219 213 214 206 211 183 199 208 223 226 225 184 181 176 150 195 135 152 136 174 227 236 152 197 195 205 210 219 223 227 187 174 122 93 195 216 215 179 202 207 195 176 159 132 114 109 107 100 87 76 84
284 281 279 277 277 277 276 275 273 268 225 219 220 232 240 240 155 155 145 132 116 224 249 259 252 294 266 262 36 265 166 177 202 191 213 188 216 176 204 185 170 148 191 196 208 217 231 176 115 157 229 111 140 134 178 207 228 198 134 163 311 344 309 349 3 170 182 193 177 186 202 198 214 233 300 167 157 152 137 127 122 109 108 106 102 99 91
293 288 284 279 277 277 276 274 272 270 274 241 210 228 222 216 226 214 131 108 233 238 217 239 250 233 253 17 291 205 169 188 191 182 202 178 176 168 178 148 183 179 185 198 202 184 293 129 183 156 89 214 162 128 215 226 224 133 95 50 0 357 353 41 35 32 348 338 357 16 286 198 87 92 96 112 96 88 106 115 125 114 112 115 120 126 131
295 288 284 281 279 277 275 273 270 232 213 228 242 238 165 192 180 184 183 176 202 213 210 231 259 270 257 219 229 219 144 184 196 183 189 169 150 172 142 168 164 200 199 112 222 214 178 216 140 160 195 130 152 209 222 221 166 160 119 128 360 333 69 177 110 350 319 334 359 5 353 139 135 151 156 141 124 133 132 137 141 134 131 133 131 135 134
297 292 285 282 279 277 276 271 222 177 185 214 222 162 175 179 197 183 178 189 205 262 244 230 198 229 248 262 227 200 146 237 316 85 111 119 152 314 150 160 172 203 77 179 200 186 211 216 171 199 147 174 202 196 226 159 160 145 124 116 43 47 26 282 299 307 298 345 20 35 110 240 167 162 133 128 124 128 135 132 132 124 131 132 142 136 121
298 292 291 289 279 148 217 209 181 188 185 141 280 285 300 333 61 115 184 204 214 197 232 283 272 247 222 255 323 255 172 189 187 117 153 167 167 146 150 174 186 134 116 169 199 185 210 43 181 178 178 194 194 55 53 37 114 137 143 90 63 6 345 328 326 311 44 29 39 33 63 121 104 118 133 140 146 139 141 158 166 157 160 157 147 140 136
304 300 290 198 180 202 190 205 150 342 337 350 59 101 65 73 215 198 188 208 197 179 213 212 257 274 261 206 242 11 246 201 87 145 202 180 128 231 212 149 182 135 180 174 209 156 98 84 209 199 183 37 46 76 52 59 62 49 52 47 24 1 346 320 340 321 150 126 230 162 107 103 144 177 157 158 153 151 149 107 89 86 104 119 124 129 125
310 280 220 234 232 204 159 127 350 4 78 118 84 123 157 132 215 252 211 193 191 216 153 222 247 218 259 258 260 285 257 193 179 182 167 209 156 183 206 173 275 125 169 166 240 147 121 297 357 169 218 152 147 97 81 62 58 37 46 9 359 335 334 331 330 329 287 290 299 284 221 197 189 178 153 122 94 73 81 89 86 89 103 106 111 109 107
286 281 274 280 229 339 6 347 7 46 148 120 32 115 181 207 230 247 50 241 225 143 35 252 237 265 228 249 294 255 307 232 181 184 164 125 319 167 168 91 180 163 192 189 180 123 171 172 210 168 219 159 128 59 55 58 53 34 17 358 344 330 347 321 324 302 284 280 276 299 359 61 113 146 143 135 125 115 96 85 85 92 100 104 105 109 113
263 254 214 202 345 342 325 329 324 97 69 99 84 46 161 196 176 205 301 244 201 261 78 274 284 270 245 220 258 268 321 347 316 335 91 135 276 88 138 169 124 117 225 183 193 117 124 125 164 202 202 38 49 34 36 45 32 14 2 344 4 348 346 354 355 349 2 35 33 33 38 55 73 80 89 103 109 109 109 108 106 106 105 106 105 102 106
236 232 261 331 295 282 322 15 59 59 52 60 133 242 216 229 326 158 43 296 304 330 284 305 292 322 296 316 293 296 290 285 304 306 110 141 272 122 123 25 350 181 196 225 119 104 162 192 175 209 107 69 36 26 24 38 22 360 350 0 11 26 15 10 32 28 33 62 66 60 53 68 70 69 78 96 98 99 100 100 97 91 95 96 98 98 95
279 278 215 267 260 291 255 46 12 55 56 2 17 5 336 350 47 348 293 139 97 257 311 338 286 309 262 250 266 199 264 326 309 337 62 123 54 49 106 118 167 195 183 45 102 124 180 174 196 180 60 62 33 16 10 12 11 14 357 16 50 43 41 52 58 65 49 57 64 66 69 72 70 69 78 90 96 87 77 80 89 97 94 94 91 88 85
129 148 94 60 50 339 356 41 313 53 41 21 50 350 323 321 347 18 313 322 348 272 38 355 332 350 321 357 332 318 305 248 263 91 61 350 75 87 106 141 179 342 35 71 128 182 177 66 25 73 109 70 20 13 353 348 343 26 37 39 44 56 78 87 85 75 67 62 67 70 72 75 80 73 69 68 81 98 97 84 79 88 91 92 87 84 86
142 26 49 45 42 309 35 18 352 86 84 323 13 286 279 266 307 335 282 345 63 285 317 304 288 302 272 279 281 253 319 276 293 100 91 36 83 23 93 158 100 355 135 153 128 54 6 166 95 75 49 37 25 0 3 354 356 10 54 63 55 57 71 76 68 78 70 68 76 82 76 77 81 77 69 70 63 65 89 96 96 95 92 91 87 81 64
64 94 65 78 49 351 71 111 338 51 46 355 325 307 293 278 292 279 306 8 290 301 301 305 306 280 270 272 314 308 339 290 10 38 23 315 103 153 232 3 44 82 39 96 167 188 173 76 61 58 36 26 22 17 14 9 16 32 58 48 48 65 74 76 79 78 86 87 77 82 86 83 80 81 73 60 57 55 50 53 61 86 98 88 83 82 67
64 17 56 87 88 3 45 67 21 284 305 303 263 269 252 273 278 278 279 288 276 292 295 285 263 249 278 303 313 222 211 288 70 321 17 45 98 76 5 102 83 305 170 177 192 155 114 84 54 35 20 24 26 33 33 31 27 38 26 30 64 76 77 76 76 80 93 87 81 82 78 76 73 79 88 77 54 48 48 47 53 58 79 89 91 88 83
88 315 56 69 60 44 41 27 236 245 201 227 265 270 261 276 281 278 255 268 288 295 284 306 303 206 222 234 213 251 314 310 66 23 19 9 65 72 82 52 85 145 353 327 43 27 39 29 10 18 21 22 18 29 31 30 28 30 36 36 21 44 72 85 78 72 74 79 82 83 83 81 81 82 75 84 82 56 46 47 46 53 71 78 78 78 82
79 57 68 119 91 50 21 2 350 298 71 271 295 285 298 303 280 293 318 306 288 272 273 261 281 310 278 2 81 20 22 333 58 353 34 25 66 70 23 141 140 144 51 23 47 31 22 19 25 30 33 34 25 31 39 36 38 34 32 34 33 29 22 55 69 80 81 75 79 81 79 83 88 85 87 79 76 63 52 51 54 53 42 52 58 63 61
52 41 27 20 48 58 334 265 225 271 318 328 355 332 334 294 290 295 1 320 308 303 274 227 221 256 284 24 45 51 61 354 45 356 57 51 24 313 280 93 13 19 58 23 19 17 0 11 45 40 36 35 31 22 27 25 29 37 35 39 36 44 47 58 61 53 66 79 82 86 85 70 65 68 69 77 90 97 73 57 57 58 52 38 50 62 65
54 88 96 320 63 261 336 24 7 328 341 343 345 332 344 322 322 310 346 319 315 291 243 3 296 296 313 12 25 52 334 311 55 42 59 49 339 320 10 58 70 46 50 52 24 10 1 350 8 45 47 42 38 36 31 34 39 41 37 38 44 53 53 49 54 58 61 70 80 80 69 68 75 88 97 107 114 100 76 55 42 46 54 54 45 52 59
51 49 40 76 86 33 331 276 270 254 278 289 299 291 347 303 322 303 317 308 272 306 1 307 327 353 43 44 350 285 299 53 60 56 58 54 4 4 31 14 47 25 6 39 38 22 18 18 18 23 25 37 41 40 52 53 56 53 51 49 47 49 52 56 57 62 72 72 66 67 73 69 61 56 71 77 66 61 59 51 31 36 45 54 52 54 64